Location: Augustenthal
(51.7167°N, 10.2833°E)
Time: 08:27:09
(UTC+00:00)

Okean 1 - Pass Details

Date: 18 May 2021
Orbit: 537 x 554 km, 82.5° (Epoch: 20 June)

Event Time Altitude Azimuth Distance (km) Brightness Sun altitude
Exits shadow 21:49:17 14° 216° (SW) 1,555 5.3 -16.1°
Maximum altitude 21:52:26 44° 286° (WNW) 757 4.3 -16.3°
Drops below altitude 10° 21:56:17 10° 360° (N) 1,818 7.1 -16.5°
Sets 21:58:31 0° 6° (N) 2,713 8.1 -16.6°
